Alexandria, MN

11:29 AM CST on December 05, 2019 (GMT -0600)
Chandler

Weather History for KAXN - October, 2019

Change the Weather History Date:

Saturday, October 5, 2019

  Actual Average Record
Temperature  
Mean Temperature 48 °F -  
Max Temperature 55 °F 57 °F 90 °F (1963)
Min Temperature 43 °F 38 °F 22 °F (1952)
Degree Days  
Heating Degree Days 16    
Moisture  
Dew Point 46 °F    
Average Humidity 93    
Maximum Humidity 97    
Minimum Humidity 83    
Precipitation  
Precipitation 0.96 in - - ()
Sea Level Pressure  
Sea Level Pressure 29.79 in    
Wind  
Wind Speed 15 mph ()    
Max Wind Speed 25 mph    
Max Gust Speed 37 mph    
Visibility 5.8 miles    
Events Rain , Thunderstorm    
Averages and records for this station are not official NWS values.
T = Trace of Precipitation, MM = Missing Value Source: Averaged Metar Reports

Daily Weather History Graph

Daily Weather History Graph

Search for Another Location

Airport or City:

Astronomy

Oct. 05, 2019 Rise Set
Actual Time 7:24 AM CDT 6:54 PM CDT
Civil Twilight 6:55 AM CDT 7:24 PM CDT
Nautical Twilight 6:20 AM CDT 7:58 PM CDT
Astronomical Twilight 5:45 AM CDT 8:33 PM CDT
Moon 3:08 PM CDT No Moon Set
Length of Visible Light 12h 29m
Length of Day
11h 29m
Waxing Crescent, 50% of the Moon is Illuminated
Oct 5
Waxing Crescent
Oct 13
Full
Oct 21
Last Quarter
Oct 27
New
Nov 4
First Quarter

Hourly Weather History & Observations

Time (CDT) Temp. Windchill Dew Point Humidity Pressure Visibility Wind Dir Wind Speed Gust Speed Precip Events Conditions
12:10 AM 43.0 °F 33.8 °F 41.0 °F 93% 30.06 in 8.0 mi ESE 23.0 mph 31.1 mph 0.01 in Rain Light Rain
12:48 AM 44.6 °F 37.2 °F 41.0 °F 87% 30.05 in 10.0 mi ESE 17.3 mph 27.6 mph 0.03 in Rain Light Rain
12:53 AM 44.1 °F 36.5 °F 41.0 °F 89% 30.09 in 10.0 mi ESE 17.3 mph 27.6 mph 0.03 in Rain Light Rain
1:53 AM 44.1 °F 37.4 °F 42.1 °F 93% 30.05 in 2.5 mi SE 13.8 mph 25.3 mph 0.14 in Rain Heavy Rain
2:06 AM 44.1 °F 37.4 °F 43.0 °F 96% 30.01 in 4.0 mi ESE 13.8 mph 20.7 mph 0.06 in Rain Light Rain
2:14 AM 44.1 °F 37.7 °F 43.0 °F 96% 30.01 in 5.0 mi ESE 12.7 mph 20.7 mph 0.10 in Rain , Thunderstorm Heavy Thunderstorms and Rain
2:46 AM 45.0 °F 39.3 °F 43.0 °F 93% 29.98 in 6.0 mi SE 11.5 mph 27.6 mph 0.16 in Rain , Thunderstorm Light Rain
2:53 AM 45.0 °F 39.7 °F 43.0 °F 93% 30.02 in 5.0 mi SE 10.4 mph - 0.19 in Rain Rain
3:04 AM 45.0 °F 38.5 °F 44.1 °F 97% 30.01 in 2.0 mi SSE 13.8 mph 20.7 mph 0.10 in Rain Heavy Rain
3:14 AM 45.0 °F 38.5 °F 44.1 °F 97% 30.03 in 3.0 mi SSE 13.8 mph 24.2 mph 0.14 in Rain Rain
3:19 AM 45.0 °F 39.3 °F 44.1 °F 97% 30.03 in 2.5 mi SE 11.5 mph - 0.19 in Rain Heavy Rain
3:28 AM 45.0 °F 38.5 °F 44.1 °F 97% 30.00 in 2.0 mi ESE 13.8 mph 23.0 mph 0.25 in Rain Heavy Rain
3:34 AM 45.0 °F 38.5 °F 44.1 °F 97% 29.99 in 3.0 mi ESE 13.8 mph - 0.28 in Rain Rain
3:39 AM 45.0 °F 39.3 °F 44.1 °F 97% 29.98 in 2.5 mi ESE 11.5 mph 21.9 mph 0.31 in Rain Heavy Rain
3:53 AM 45.0 °F 38.5 °F 44.1 °F 97% 30.00 in 4.0 mi ESE 13.8 mph - 0.37 in Rain Light Rain
3:59 AM 45.0 °F 38.5 °F 44.1 °F 97% 29.96 in 6.0 mi ESE 13.8 mph 21.9 mph 0.01 in Rain Light Rain
4:53 AM 46.0 °F 39.0 °F 44.1 °F 93% 29.92 in 5.0 mi SE 17.3 mph 25.3 mph 0.04 in Rain Light Rain
5:53 AM 46.0 °F 39.3 °F 44.1 °F 93% 29.92 in 10.0 mi SE 16.1 mph 27.6 mph 0.01 in   Overcast
6:53 AM 46.9 °F - 45.0 °F 93% 29.86 in 4.0 mi SE 13.8 mph - N/A   Overcast
7:27 AM 46.9 °F - 45.0 °F 93% 29.81 in 7.0 mi SE 13.8 mph 23.0 mph N/A   Overcast
7:53 AM 46.9 °F - 46.0 °F 97% 29.83 in 10.0 mi SE 17.3 mph 26.5 mph N/A   Overcast
8:26 AM 48.0 °F - 46.0 °F 93% 29.79 in 9.0 mi SSE 15.0 mph - 0.01 in   Overcast
8:53 AM 48.9 °F - 46.9 °F 93% 29.78 in 9.0 mi SSE 13.8 mph 27.6 mph 0.01 in   Overcast
9:53 AM 50.0 °F - 48.0 °F 93% 29.76 in 2.5 mi SSE 15.0 mph 24.2 mph N/A   Overcast
10:02 AM 50.0 °F - 48.0 °F 93% 29.72 in 1.5 mi SSE 16.1 mph - N/A   Overcast
10:53 AM 50.0 °F - 48.9 °F 96% 29.72 in 1.8 mi South 16.1 mph - N/A   Overcast
11:07 AM 51.1 °F - 48.9 °F 92% 29.68 in 2.5 mi SSE 15.0 mph - N/A   Overcast
11:31 AM 51.1 °F - 48.9 °F 92% 29.67 in 2.0 mi SSE 13.8 mph - N/A   Overcast
11:41 AM 51.1 °F - 50.0 °F 96% 29.67 in 1.5 mi South 13.8 mph - N/A   Overcast
11:53 AM 51.1 °F - 50.0 °F 96% 29.70 in 1.8 mi SSE 13.8 mph - N/A   Overcast
11:57 AM 51.1 °F - 50.0 °F 96% 29.67 in 2.0 mi SSE 13.8 mph - N/A   Overcast
12:06 PM 51.1 °F - 50.0 °F 96% 29.65 in 1.5 mi SSE 13.8 mph - 0.00 in Rain Light Rain
12:22 PM 51.1 °F - 50.0 °F 96% 29.64 in 2.0 mi South 12.7 mph - 0.01 in   Overcast
12:53 PM 51.1 °F - 50.0 °F 96% 29.64 in 7.0 mi South 12.7 mph - 0.06 in   Overcast
1:53 PM 52.0 °F - 51.1 °F 97% 29.62 in 2.5 mi South 12.7 mph - 0.03 in   Overcast
2:19 PM 53.1 °F - 51.1 °F 93% 29.59 in 3.0 mi SSW 16.1 mph 23.0 mph 0.01 in   Overcast
2:49 PM 53.6 °F - 51.8 °F 94% 29.58 in 6.0 mi SW 12.7 mph 23.0 mph 0.01 in   Overcast
2:53 PM 54.0 °F - 51.1 °F 90% 29.60 in 9.0 mi WSW 16.1 mph 26.5 mph 0.01 in   Overcast
3:00 PM 54.0 °F - 51.1 °F 90% 29.58 in 10.0 mi WSW 16.1 mph - N/A   Overcast
3:42 PM 52.0 °F - 50.0 °F 93% 29.60 in 2.5 mi West 20.7 mph 32.2 mph 0.02 in Rain Light Rain
3:51 PM 51.8 °F - 48.2 °F 88% 29.60 in 8.0 mi West 17.3 mph 28.8 mph 0.02 in Rain Light Rain
3:53 PM 52.0 °F - 48.9 °F 89% 29.62 in 10.0 mi West 18.4 mph 28.8 mph 0.02 in   Overcast
4:31 PM 51.1 °F - 48.0 °F 89% 29.62 in 5.0 mi West 20.7 mph 33.4 mph 0.01 in Rain Light Rain
4:53 PM 51.1 °F - 48.0 °F 89% 29.65 in 10.0 mi West 25.3 mph 36.8 mph 0.01 in   Overcast
5:27 PM 48.9 °F - 46.0 °F 90% 29.67 in 2.5 mi West 23.0 mph 35.7 mph 0.02 in Rain Light Rain
5:33 PM 48.0 °F - 46.0 °F 93% 29.67 in 1.8 mi West 20.7 mph 31.1 mph 0.02 in Rain Light Rain
5:39 PM 48.0 °F - 46.0 °F 93% 29.67 in 2.0 mi West 19.6 mph 31.1 mph 0.03 in Rain Light Rain
5:42 PM 48.0 °F - 46.0 °F 93% 29.68 in 3.0 mi West 20.7 mph 32.2 mph 0.03 in Rain Light Rain
5:53 PM 48.0 °F - 45.0 °F 89% 29.71 in 10.0 mi West 18.4 mph 33.4 mph 0.03 in   Overcast
6:13 PM 46.9 °F - 44.1 °F 90% 29.70 in 7.0 mi WNW 23.0 mph 34.5 mph 0.01 in   Overcast
6:22 PM 46.9 °F - 43.0 °F 86% 29.70 in 5.0 mi West 21.9 mph 35.7 mph 0.01 in   Overcast
6:31 PM 46.0 °F 38.0 °F 43.0 °F 89% 29.70 in 10.0 mi WNW 21.9 mph 34.5 mph 0.01 in   Overcast
6:44 PM 46.0 °F 38.5 °F 43.0 °F 89% 29.71 in 10.0 mi West 19.6 mph 34.5 mph 0.01 in   Overcast
6:53 PM 46.0 °F 38.3 °F 43.0 °F 89% 29.74 in 10.0 mi West 20.7 mph 33.4 mph 0.01 in   Overcast
7:53 PM 46.9 °F - 44.1 °F 90% 29.78 in 10.0 mi West 19.6 mph 32.2 mph N/A   Overcast
8:07 PM 46.9 °F - 44.1 °F 90% 29.75 in 10.0 mi WNW 17.3 mph 28.8 mph N/A   Mostly Cloudy
8:18 PM 46.9 °F - 44.1 °F 90% 29.75 in 10.0 mi West 17.3 mph 27.6 mph N/A   Mostly Cloudy
8:53 PM 46.9 °F - 44.1 °F 90% 29.79 in 10.0 mi West 15.0 mph - N/A   Partly Cloudy
9:53 PM 48.0 °F - 44.1 °F 86% 29.80 in 10.0 mi West 12.7 mph - N/A   Mostly Cloudy
10:53 PM 46.9 °F - 44.1 °F 90% 29.81 in 10.0 mi West 10.4 mph - N/A   Partly Cloudy
11:53 PM 48.0 °F - 43.0 °F 83% 29.81 in 10.0 mi WSW 11.5 mph 21.9 mph N/A   Scattered Clouds